Regional Weather Roundup
Issued by NWS Bismarck, ND

Home | Current Version | Previous Version | Text Only | Print | Product List | Glossary On
Versions: 1 2 3 4 5 6 7 8 9 10 11 12 13 14 15 16 17 18 19 20 21 22 23 24 25 26 27 28 29 30 31 32 33 34 35 36 37 38 39 40 41 42 43 44 45 46 47 48 49 50
000
ASUS43 KBIS 222310
RWRBIS

NWR BROADCAST TEXT
NATIONAL WEATHER SERVICE BISMARCK ND
600 PM CDT MON SEP 22 2014

NOTE: "FAIR" INDICATES FEW OR NO CLOUDS BELOW 12,000 FEET WITH NO
SIGNIFICANT WEATHER AND/OR OBSTRUCTIONS TO VISIBILITY.


CITY           SKY/WX    TMP DP  RH WIND       PRES   REMARKS
WILLISTON      SUNNY     82  48  30 SE13      29.87F
MINOT          SUNNY     80  45  28 SE12      29.92F
MINOT AFB      SUNNY     79  48  32 SE15      29.91F
BISMARCK       SUNNY     79  48  33 SE16      29.95F
DICKINSON      MOSUNNY   74  50  42 S18       29.91F
GARRISON         N/A     78  50  37 SE13      29.92F
HETTINGER ARPT MOSUNNY   77  48  35 SE15G24   29.92F
JAMESTOWN      SUNNY     73  48  41 S9        30.02F
BEACH            N/A     73  50  43 E12       29.91S
CARRINGTON     FAIR      77  45  31 S13       30.01F
CROSBY         FAIR      81  41  24 S13       29.89S
HARVEY         FAIR      77  45  31 S13       29.97F
HAZEN          FAIR      77  48  36 SE18G29   29.92S
LINTON         FAIR      77  50  38 SE16G25   29.96F
MANDAN         FAIR      75  46  35 SE17G26   29.96F
OAKES            N/A     75  46  35 S12       30.05S
RUGBY          FAIR      77  45  31 S13G18    29.96F
STANLEY        FAIR      77  48  36 S15G21    29.92F
TIOGA          FAIR      77  46  33 SE15G23   29.94F
WATFORD CITY   FAIR      81  48  32 SE15      29.87S
$$

CITY           SKY/WX    TMP DP  RH WIND       PRES   REMARKS
GRAND FORKS    SUNNY     76  47  35 S9        30.02S
GRAND FORKS AF SUNNY     76  44  32 SW12      30.02F
DEVILS LAKE    SUNNY     75  45  33 S12       29.98F
FARGO          SUNNY     76  46  34 S10       30.05F
CANDO          FAIR      75  45  33 S13       29.99F
CAVALIER       FAIR      75  48  38 S7        29.99F
GRAFTON        FAIR      75  46  35 S10       30.00F
GWINNER        CLEAR     75  48  38 S10       30.07F
LANGDON        FAIR      75  41  29 S13       30.01S
ROLLA          FAIR      75  39  27 S10       29.99F
WALHALLA         N/A     75  46  35 S7        29.99S
$$

CITY           SKY/WX    TMP DP  RH WIND       PRES   REMARKS
ABERDEEN       MOSUNNY   76  47  35 S16G24    30.04F
MOBRIDGE       MOSUNNY   80  51  36 SE18G26   29.94F
BUFFALO          N/A     79  49  34 S16       29.84F
RAPID CITY     CLOUDY    72  50  45 S15       29.92F
GLASGOW        SUNNY     81  47  30 S10       29.83F
SIDNEY         SUNNY     84  50  30 S10       29.87S
WOLF POINT     SUNNY     85  50  29 SE5       29.83F
GLENDIVE       MOSUNNY   73  52  46 E6        29.88F
MILES CITY     MOSUNNY   84  48  28 VRB3      29.84F
BAKER          PTSUNNY   76  49  38 SE15      29.91S
$$

CITY           SKY/WX    TMP DP  RH WIND       PRES   REMARKS
BILLINGS       PTSUNNY   82  44  26 W9        29.91S
GREAT FALLS    MOSUNNY   83  46  27 SW14      29.88S
REGINA         SUNNY     79  50  36 S10G18    29.84F
ESTEVAN        SUNNY     79  48  34 SE8       29.90F
$$



USA.gov is the U.S. government's official web portal to all federal, state and local government web resources and services.